Stormwatcher's Retreat Logo




                  Temp     Hi    Low   Out    Dew  Wind  Wind   Wind    Hi    Hi   Wind   Heat    THW   THSW                Rain  Solar   Solar Hi Solar   UV    UV    Hi     Heat    Cool    In     In    In     In     In   In Air          Wind  Wind    ISS   Arc.
  Date    Time     Out   Temp   Temp   Hum    Pt. Speed   Dir    Run Speed   Dir  Chill  Index  Index  Index   Bar    Rain  Rate   Rad.  Energy    Rad.  Index  Dose   UV     D-D     D-D    Temp   Hum    Dew   Heat    EMC Density     ET   Samp   Tx   Recept  Int.
------------------------------------------------------------------------------------------------------------------------------------------------------------------------------------------------------------------------------------------------------------------------
 8/18/19 12:10a   60.8   60.8   60.8    84   55.9   4.0   ENE   0.67  10.0   ENE   60.8   60.9   60.9   58.2  29.932  0.00  0.00     0     0.00      0     0.0  0.00   0.0   0.029   0.000   72.7    61   58.5   73.0  11.14  .0733    0.000   212    5    100.0   10 
 8/18/19 12:20a   60.8   60.8   60.8    83   55.6   5.0   ENE   0.83  13.0   ENE   60.8   60.9   60.9   58.2  29.930  0.00  0.00     0     0.00      0     0.0  0.00   0.0   0.029   0.000   72.8    61   58.6   73.2  11.14  .0733    0.000   213    5    100.0   10 
 8/18/19 12:30a   60.8   60.8   60.8    83   55.6   5.0   ENE   0.83  10.0     E   60.8   60.9   60.9   58.2  29.931  0.00  0.00     0     0.00      0     0.0  0.00   0.0   0.029   0.000   72.8    61   58.6   73.2  11.14  .0733    0.000   213    5    100.0   10 
 8/18/19 12:40a   60.9   60.9   60.8    82   55.4   5.0   ENE   0.83  10.0   ENE   60.9   61.0   61.0   58.3  29.928  0.00  0.00     0     0.00      0     0.0  0.00   0.0   0.028   0.000   72.9    61   58.7   73.3  11.13  .0733    0.000   213    5    100.0   10 
 8/18/19 12:50a   60.9   60.9   60.9    82   55.4   5.0   ENE   0.83  12.0     E   60.9   61.0   61.0   58.3  29.925  0.00  0.00     0     0.00      0     0.0  0.00   0.0   0.028   0.000   72.9    61   58.7   73.3  11.13  .0733    0.000   212    5    100.0   10 
 8/18/19  1:00a   61.0   61.0   60.9    82   55.5   5.0   ENE   0.83  10.0     E   61.0   61.1   61.1   58.4  29.927  0.00  0.00     0     0.00      0     0.0  0.00   0.0   0.028   0.000   73.0    61   58.8   73.5  11.13  .0733    0.001   212    5    100.0   10 
 8/18/19  1:10a   61.0   61.1   61.0    81   55.1   4.0     E   0.67  10.0     E   61.0   61.0   61.0   58.3  29.925  0.00  0.00     0     0.00      0     0.0  0.00   0.0   0.028   0.000   73.0    61   58.8   73.5  11.13  .0733    0.000   212    5    100.0   10 
 8/18/19  1:20a   60.5   61.0   60.5    80   54.3   2.0   ENE   0.33   6.0   ENE   60.5   60.5   60.5   57.7  29.922  0.00  0.00     0     0.00      0     0.0  0.00   0.0   0.031   0.000   73.0    61   58.8   73.5  11.13  .0733    0.000   213    5    100.0   10 
 8/18/19  1:30a   59.7   60.5   59.7    80   53.5   2.0   ENE   0.33   4.0     E   59.7   59.6   59.6   56.8  29.918  0.00  0.00     0     0.00      0     0.0  0.00   0.0   0.037   0.000   73.0    61   58.8   73.5  11.13  .0733    0.000   212    5    100.0   10 
 8/18/19  1:40a   58.7   59.6   58.7    80   52.5   2.0    NE   0.33   6.0    NE   58.7   58.5   58.5   55.6  29.915  0.00  0.00     0     0.00      0     0.0  0.00   0.0   0.044   0.000   73.0    60   58.3   73.4  10.99  .0733    0.000   212    5    100.0   10 
 8/18/19  1:50a   57.5   58.6   57.5    80   51.4   3.0    NE   0.50   6.0    NE   57.5   57.3   57.3   54.4  29.914  0.00  0.00     0     0.00      0     0.0  0.00   0.0   0.052   0.000   73.1    60   58.4   73.5  10.99  .0732    0.000   211    5    100.0   10 
 8/18/19  2:00a   56.3   57.5   56.3    81   50.5   3.0    NE   0.50   5.0   ENE   56.3   56.0   56.0   53.0  29.915  0.00  0.00     0     0.00      0     0.0  0.00   0.0   0.060   0.000   73.1    60   58.4   73.5  10.99  .0732    0.001   212    5    100.0   10 
 8/18/19  2:10a   56.1   56.3   56.0    82   50.7   2.0   ENE   0.33   4.0   ENE   56.1   55.9   55.9   52.9  29.912  0.00  0.00     0     0.00      0     0.0  0.00   0.0   0.062   0.000   73.1    60   58.4   73.5  10.99  .0732    0.000   212    5    100.0   10 
 8/18/19  2:20a   56.6   56.6   56.0    84   51.8   1.0   ENE   0.17   5.0    NE   56.6   56.5   56.5   53.6  29.910  0.00  0.00     0     0.00      0     0.0  0.00   0.0   0.058   0.000   73.1    60   58.4   73.5  10.99  .0732    0.000   212    5    100.0   10 
 8/18/19  2:30a   57.6   57.6   56.6    85   53.1   3.0   ENE   0.50   8.0   ENE   57.6   57.5   57.5   54.7  29.905  0.00  0.00     0     0.00      0     0.0  0.00   0.0   0.051   0.000   73.1    60   58.4   73.5  10.99  .0732    0.000   213    5    100.0   10 
 8/18/19  2:40a   58.6   58.6   57.7    85   54.1   3.0   ENE   0.50   8.0   ENE   58.6   58.6   58.6   55.8  29.905  0.00  0.00     0     0.00      0     0.0  0.00   0.0   0.044   0.000   73.1    60   58.4   73.5  10.99  .0732    0.000   213    5    100.0   10 
 8/18/19  2:50a   59.1   59.1   58.6    84   54.3   3.0     E   0.50   9.0   ENE   59.1   59.1   59.1   56.3  29.903  0.00  0.00     0     0.00      0     0.0  0.00   0.0   0.041   0.000   73.1    60   58.4   73.5  10.99  .0732    0.000   209    5    100.0   10 
 8/18/19  3:00a   59.6   59.6   59.1    83   54.4   4.0   ENE   0.67  10.0    NE   59.6   59.6   59.6   56.8  29.900  0.00  0.00     0     0.00      0     0.0  0.00   0.0   0.038   0.000   73.0    60   58.3   73.4  10.99  .0732    0.001   212    5    100.0   10 
 8/18/19  3:10a   59.8   59.8   59.6    83   54.6   2.0   ENE   0.33   9.0     E   59.8   59.8   59.8   57.0  29.902  0.00  0.00     0     0.00      0     0.0  0.00   0.0   0.036   0.000   73.0    60   58.3   73.4  10.99  .0732    0.000   214    5    100.0   10 
 8/18/19  3:20a   57.9   59.7   57.9    80   51.8   1.0   ENE   0.17   4.0   ENE   57.9   57.7   57.7   54.8  29.901  0.00  0.00     0     0.00      0     0.0  0.00   0.0   0.049   0.000   73.0    60   58.3   73.4  10.99  .0732    0.000   211    5    100.0   10 
 8/18/19  3:30a   56.2   57.8   56.2    81   50.4   1.0   ESE   0.17   3.0   ESE   56.2   55.9   55.9   52.9  29.900  0.00  0.00     0     0.00      0     0.0  0.00   0.0   0.061   0.000   73.0    59   57.8   73.3  10.83  .0733    0.000   210    5    100.0   10 
 8/18/19  3:40a   55.6   56.2   55.4    83   50.5   1.0   ESE   0.17   4.0   NNE   55.6   55.4   55.4   52.4  29.898  0.00  0.00     0     0.00      0     0.0  0.00   0.0   0.065   0.000   73.0    59   57.8   73.3  10.83  .0732    0.000   214    5    100.0   10 
 8/18/19  3:50a   55.7   55.8   55.6    83   50.6   1.0     W   0.17   3.0   WNW   55.7   55.5   55.5   52.5  29.895  0.00  0.00     0     0.00      0     0.0  0.00   0.0   0.065   0.000   73.0    59   57.8   73.3  10.83  .0732    0.000   210    5    100.0   10 
 8/18/19  4:00a   55.4   55.9   55.4    83   50.3   1.0   NNE   0.17   3.0   ENE   55.4   55.2   55.2   52.2  29.895  0.00  0.00     0     0.00      0     0.0  0.00   0.0   0.067   0.000   72.9    59   57.7   73.2  10.83  .0733    0.001   211    5    100.0   10 
 8/18/19  4:10a   55.1   55.4   55.0    84   50.4   1.0   NNE   0.17   3.0   NNE   55.1   55.0   55.0   52.0  29.897  0.00  0.00     0     0.00      0     0.0  0.00   0.0   0.069   0.000   72.9    59   57.7   73.2  10.83  .0733    0.000   210    5    100.0   10 
 8/18/19  4:20a   55.5   55.7   55.1    84   50.7   1.0   ENE   0.17   3.0   ENE   55.5   55.4   55.4   52.4  29.895  0.00  0.00     0     0.00      0     0.0  0.00   0.0   0.066   0.000   72.9    59   57.7   73.2  10.83  .0733    0.000   210    5    100.0   10 
 8/18/19  4:30a   54.9   55.5   54.9    84   50.2   1.0   ENE   0.17   2.0   ENE   54.9   54.8   54.8   51.8  29.894  0.00  0.00     0     0.00      0     0.0  0.00   0.0   0.070   0.000   72.9    59   57.7   73.2  10.83  .0733    0.000   210    5    100.0   10 
 8/18/19  4:40a   54.8   54.9   54.7    85   50.4   1.0   ENE   0.17   2.0     E   54.8   54.7   54.7   51.7  29.895  0.00  0.00     0     0.00      0     0.0  0.00   0.0   0.071   0.000   72.9    59   57.7   73.2  10.83  .0733    0.000   214    5    100.0   10 
 8/18/19  4:50a   55.0   55.0   54.8    85   50.6   0.0   ENE   0.00   3.0   ESE   55.0   54.9   54.9   51.9  29.893  0.00  0.00     0     0.00      0     0.0  0.00   0.0   0.069   0.000   72.8    59   57.6   73.0  10.84  .0733    0.000   213    5    100.0   10 
 8/18/19  5:00a   54.6   55.0   54.6    85   50.2   1.0   ESE   0.17   2.0   ESE   54.6   54.5   54.5   51.5  29.892  0.00  0.00     0     0.00      0     0.0  0.00   0.0   0.072   0.000   72.8    59   57.6   73.0  10.84  .0733    0.001   213    5    100.0   10 
 8/18/19  5:10a   54.1   54.5   54.1    85   49.7   1.0   ESE   0.17   2.0   ESE   54.1   54.0   54.0   51.0  29.892  0.00  0.00     0     0.00      0     0.0  0.00   0.0   0.076   0.000   72.8    59   57.6   73.0  10.84  .0733    0.000   213    5    100.0   10 
 8/18/19  5:20a   54.5   54.5   54.1    86   50.4   1.0   ESE   0.17   2.0   ESE   54.5   54.4   54.4   51.4  29.889  0.00  0.00     0     0.00      0     0.0  0.00   0.0   0.073   0.000   72.7    59   57.5   72.9  10.84  .0733    0.000   212    5    100.0   10 
 8/18/19  5:30a   54.5   54.5   54.5    86   50.4   0.0   ESE   0.00   2.0   ESE   54.5   54.4   54.4   51.4  29.888  0.00  0.00     0     0.00      0     0.0  0.00   0.0   0.073   0.000   72.7    59   57.5   72.9  10.84  .0733    0.000   213    5    100.0   10 
 8/18/19  5:40a   54.6   54.6   54.4    86   50.5   0.0   ESE   0.00   2.0   ESE   54.6   54.5   54.5   51.5  29.890  0.00  0.00     0     0.00      0     0.0  0.00   0.0   0.072   0.000   72.7    59   57.5   72.9  10.84  .0733    0.000   213    5    100.0   10 
 8/18/19  5:50a   54.4   54.6   54.4    86   50.3   0.0   ESE   0.00   2.0   ESE   54.4   54.3   54.3   51.3  29.889  0.00  0.00     0     0.00      0     0.0  0.00   0.0   0.074   0.000   72.7    59   57.5   72.9  10.84  .0733    0.000   213    5    100.0   10 
 8/18/19  6:00a   54.3   54.4   54.3    86   50.2   0.0   ESE   0.00   1.0   ESE   54.3   54.2   54.2   51.2  29.889  0.00  0.00     0     0.00      0     0.0  0.00   0.0   0.074   0.000   72.6    58   57.0   72.6  10.65  .0733    0.000   212    5    100.0   10 
 8/18/19  6:10a   54.2   54.3   54.2    86   50.1   0.0   ESE   0.00   1.0   ESE   54.2   54.1   54.1   51.1  29.887  0.00  0.00     0     0.00      0     0.0  0.00   0.0   0.075   0.000   72.6    58   57.0   72.6  10.65  .0733    0.000   213    5    100.0   10 
 8/18/19  6:20a   53.9   54.3   53.9    86   49.8   0.0   ESE   0.00   1.0   ESE   53.9   53.8   53.8   50.8  29.888  0.00  0.00     2     0.03      5     0.0  0.00   0.0   0.077   0.000   72.6    58   57.0   72.6  10.65  .0733    0.000   212    5    100.0   10 
 8/18/19  6:30a   53.5   54.0   53.4    86   49.4   1.0   SSE   0.17   2.0   SSE   53.5   53.4   53.4   50.5  29.890  0.00  0.00     8     0.11     11     0.0  0.00   0.0   0.080   0.000   72.5    58   56.9   72.5  10.65  .0733    0.000   210    5    100.0   10 
 8/18/19  6:40a   53.7   53.7   53.3    87   49.9   0.0   SSE   0.00   2.0   SSE   53.7   53.7   53.7   50.9  29.890  0.00  0.00    13     0.19     16     0.0  0.00   0.0   0.078   0.000   72.5    58   56.9   72.5  10.65  .0733    0.000   212    5    100.0   10 
 8/18/19  6:50a   54.8   54.8   53.7    88   51.3   1.0   ESE   0.17   4.0     E   54.8   54.8   54.8   52.3  29.890  0.00  0.00    21     0.30     23     0.0  0.00   0.0   0.071   0.000   72.5    58   56.9   72.5  10.65  .0733    0.000   210    5    100.0   10 
 8/18/19  7:00a   56.2   56.2   54.8    88   52.7   2.0   ENE   0.33   8.0     E   56.2   56.2   56.2   55.6  29.894  0.00  0.00    27     0.39     28     0.0  0.00   0.0   0.061   0.000   72.5    58   56.9   72.5  10.65  .0733    0.000   210    5    100.0   10 
 8/18/19  7:10a   57.7   57.7   56.2    88   54.2   3.0   ENE   0.50  10.0    NE   57.7   57.7   57.7   57.3  29.891  0.00  0.00    31     0.44     37     0.0  0.00   0.0   0.051   0.000   72.4    58   56.8   72.3  10.65  .0734    0.000   211    5    100.0   10 
 8/18/19  7:20a   58.6   58.6   57.7    87   54.7   4.0   ENE   0.67  10.0    NE   58.6   58.6   58.6   58.6  29.894  0.00  0.00    39     0.56     42     0.0  0.00   0.0   0.044   0.000   72.4    58   56.8   72.3  10.65  .0734    0.000   212    5    100.0   10 
 8/18/19  7:30a   59.3   59.3   58.5    86   55.1   4.0   ENE   0.67  10.0    NE   59.3   59.4   59.4   59.9  29.896  0.00  0.00    50     0.72     53     0.0  0.00   0.0   0.040   0.000   72.4    58   56.8   72.3  10.65  .0734    0.000   212    5    100.0   10 
 8/18/19  7:40a   59.8   59.8   59.3    85   55.3   3.0   ENE   0.50   8.0   ENE   59.8   59.9   59.9   60.8  29.893  0.00  0.00    61     0.87     69     0.0  0.00   0.0   0.036   0.000   72.4    58   56.8   72.3  10.65  .0734    0.000   213    5    100.0   10 
 8/18/19  7:50a   60.2   60.2   59.8    85   55.7   3.0   ENE   0.50   8.0     E   60.2   60.3   60.3   61.7  29.893  0.00  0.00    77     1.10     86     0.0  0.00   0.0   0.033   0.000   72.4    58   56.8   72.3  10.65  .0734    0.000   212    5    100.0   10 
 8/18/19  8:00a   60.7   60.7   60.2    84   55.8   3.0   ENE   0.50  11.0   ENE   60.7   60.8   60.8   63.0  29.896  0.00  0.00   101     1.45    111     0.0  0.00   0.0   0.030   0.000   72.4    58   56.8   72.3  10.65  .0734    0.002   211    5    100.0   10 
 8/18/19  8:10a   59.8   60.7   59.8    82   54.3   3.0    NE   0.50   5.0   ENE   59.8   59.8   59.8   62.4  29.899  0.00  0.00   116     1.66    120     0.0  0.00   0.0   0.036   0.000   72.4    58   56.8   72.3  10.65  .0734    0.000   212    5    100.0   10 
 8/18/19  8:20a   59.0   59.8   59.0    82   53.5   3.0    NE   0.50   6.0     E   59.0   58.9   58.9   62.0  29.897  0.00  0.00   136     1.95    149     0.0  0.00   0.0   0.042   0.000   72.4    58   56.8   72.3  10.65  .0734    0.000   212    5    100.0   10 
 8/18/19  8:30a   59.3   59.3   59.0    83   54.1   3.0    NE   0.50   5.0    NE   59.3   59.2   59.2   63.1  29.898  0.00  0.00   165     2.37    183     0.0  0.00   0.0   0.040   0.000   72.4    58   56.8   72.3  10.65  .0734    0.000   212    5    100.0   10 
 8/18/19  8:40a   60.4   60.4   59.3    84   55.5   3.0   ENE   0.50   9.0     E   60.4   60.5   60.5   65.3  29.897  0.00  0.00   198     2.84    211     0.0  0.00   0.0   0.032   0.000   72.4    58   56.8   72.3  10.65  .0734    0.000   210    5    100.0   10 
 8/18/19  8:50a   61.7   61.7   60.5    82   56.1   4.0   ENE   0.67  12.0     E   61.7   61.9   61.9   67.1  29.895  0.00  0.00   215     3.08    220     0.0  0.00   0.0   0.023   0.000   72.4    58   56.8   72.3  10.65  .0734    0.000   212    5    100.0   10 
 8/18/19  9:00a   62.5   62.5   61.8    80   56.2   4.0   ENE   0.67   9.0    NE   62.5   62.8   62.8   68.0  29.898  0.00  0.00   221     3.17    225     0.0  0.00   0.0   0.017   0.000   72.5    58   56.9   72.5  10.65  .0734    0.004   213    5    100.0   10 
 8/18/19  9:10a   61.4   62.5   61.4    78   54.5   4.0    NE   0.67   8.0   NNE   61.4   61.3   61.3   66.6  29.900  0.00  0.00   234     3.35    239     0.0  0.00   0.0   0.025   0.000   72.3    58   56.7   72.2  10.66  .0734    0.000   212    5    100.0   10 
 8/18/19  9:20a   60.8   61.4   60.8    79   54.2   4.0    NE   0.67   8.0   ENE   60.8   60.7   60.7   66.1  29.902  0.00  0.00   246     3.53    257     0.0  0.00   0.0   0.029   0.000   72.2    58   56.6   72.0  10.66  .0734    0.000   211    5    100.0   10 
 8/18/19  9:30a   61.2   61.2   60.7    80   55.0   4.0    NE   0.67  10.0    NE   61.2   61.2   61.2   67.4  29.901  0.00  0.00   283     4.06    322     0.0  0.00   0.0   0.026   0.000   72.1    58   56.5   71.9  10.67  .0734    0.000   212    5    100.0   10 
 8/18/19  9:40a   62.0   62.0   61.2    80   55.8   4.0   ENE   0.67   9.0    NE   62.0   62.2   62.2   68.8  29.903  0.00  0.00   309     4.43    325     0.0  0.00   0.0   0.021   0.000   72.0    58   56.4   71.7  10.67  .0735    0.000   213    5    100.0   10 
 8/18/19  9:50a   61.4   62.0   61.4    78   54.5   5.0    NE   0.83   8.0   NNE   61.4   61.3   61.3   68.3  29.905  0.00  0.00   337     4.83    362     0.0  0.00   0.0   0.025   0.000   72.0    58   56.4   71.7  10.67  .0735    0.000   213    5    100.0   10 
 8/18/19 10:00a   61.3   61.4   61.1    79   54.7   5.0    NE   0.83   9.0    NE   61.3   61.3   61.3   69.0  29.909  0.00  0.00   376     5.39    401     0.0  0.00   0.0   0.026   0.000   71.7    58   56.1   71.3  10.68  .0735    0.007   213    5    100.0   10 
 8/18/19 10:10a   62.2   62.2   61.3    79   55.6   5.0    NE   0.83   9.0    NE   62.2   62.3   62.3   70.1  29.912  0.00  0.00   392     5.62    429     0.0  0.00   0.0   0.019   0.000   71.7    58   56.1   71.3  10.68  .0735    0.000   212    5    100.0   10 
 8/18/19 10:20a   62.7   62.7   62.2    77   55.4   5.0    NE   0.83   9.0    NE   62.7   62.7   62.7   71.2  29.910  0.00  0.00   437     6.26    540     0.0  0.00   0.0   0.016   0.000   71.7    58   56.1   71.3  10.68  .0735    0.000   213    5    100.0   10 
 8/18/19 10:30a   63.4   63.4   62.7    75   55.3   6.0    NE   1.00  10.0    NE   63.4   63.4   63.4   73.9  29.909  0.00  0.00   594     8.52    691     0.0  0.00   0.0   0.011   0.000   71.6    58   56.0   71.2  10.69  .0735    0.000   213    5    100.0   10 
 8/18/19 10:40a   64.1   64.1   63.4    75   56.0   6.0    NE   1.00  10.0    NE   64.1   64.2   64.2   75.2  29.911  0.00  0.00   669     9.59    691     0.0  0.00   0.0   0.006   0.000   71.6    58   56.0   71.2  10.69  .0735    0.000   211    5    100.0   10 
 8/18/19 10:50a   64.6   64.7   64.1    72   55.4   6.0    NE   1.00  11.0    NE   64.6   64.6   64.6   75.6  29.914  0.00  0.00   683     9.79    693     0.0  0.00   0.0   0.003   0.000   71.5    58   55.9   71.0  10.69  .0736    0.000   210    5    100.0   10 
 8/18/19 11:00a   64.4   64.7   64.4    71   54.8   6.0    NE   1.00  10.0    NE   64.4   64.3   64.3   75.3  29.912  0.00  0.00   702    10.06    708     0.0  0.00   0.0   0.004   0.000   71.4    58   55.9   70.9  10.69  .0736    0.014   214    5    100.0   10 
 8/18/19 11:10a   64.4   64.5   64.4    71   54.8   7.0    NE   1.17  10.0   NNE   64.4   64.3   64.3   75.1  29.915  0.00  0.00   718    10.29    726     0.0  0.00   0.0   0.004   0.000   71.2    58   55.7   70.6  10.70  .0736    0.000   213    5    100.0   10 
 8/18/19 11:20a   64.3   64.3   64.3    70   54.3   7.0    NE   1.17  10.0   NNE   64.3   64.2   64.2   75.1  29.917  0.00  0.00   735    10.54    742     0.0  0.00   0.0   0.005   0.000   71.0    58   55.5   70.3  10.71  .0737    0.000   212    5    100.0   10 
 8/18/19 11:30a   64.9   64.9   64.3    71   55.3   6.0    NE   1.00  10.0    NE   64.9   64.9   64.9   76.1  29.917  0.00  0.00   750    10.75    758     0.0  0.00   0.0   0.001   0.000   71.1    58   55.6   70.4  10.71  .0736    0.000   214    5    100.0   10 
 8/18/19 11:40a   64.8   65.2   64.8    69   54.4   6.0   NNE   1.00  10.0    NE   64.8   64.7   64.7   75.8  29.919  0.00  0.00   765    10.97    770     0.0  0.00   0.0   0.001   0.000   71.2    58   55.7   70.6  10.70  .0736    0.000   211    5    100.0   10 
 8/18/19 11:50a   64.3   64.7   64.3    71   54.7   5.0    NE   0.83   8.0   NNE   64.3   64.2   64.2   75.4  29.917  0.00  0.00   781    11.20    788     0.0  0.00   0.0   0.005   0.000   71.2    58   55.7   70.6  10.70  .0736    0.000   212    5    100.0   10 
 8/18/19 12:00p   63.8   64.3   63.7    72   54.6   5.0    NE   0.83  11.0   NNE   63.8   63.7   63.7   74.9  29.921  0.00  0.00   793    11.37    802     0.0  0.00   0.0   0.008   0.000   71.4    58   55.9   70.9  10.69  .0736    0.018   211    5    100.0   10 
 8/18/19 12:10p   64.1   64.1   63.8    73   55.3   6.0    NE   1.00  10.0    NE   64.1   64.1   64.1   75.3  29.919  0.00  0.00   805    11.54    810     0.0  0.00   0.0   0.006   0.000   71.4    58   55.9   70.9  10.69  .0736    0.000   211    5    100.0   10 
 8/18/19 12:20p   64.0   64.1   63.7    73   55.2   7.0    NE   1.17  12.0   ENE   64.0   64.0   64.0   75.0  29.917  0.00  0.00   816    11.70    821     0.0  0.00   0.0   0.007   0.000   71.3    58   55.8   70.7  10.70  .0736    0.000   211    5    100.0   10 
 8/18/19 12:30p   64.8   64.8   64.0    71   55.2   8.0    NE   1.33  15.0    NE   64.2   64.8   64.2   74.8  29.917  0.00  0.00   825    11.83    830     0.7  0.05   1.2   0.001   0.000   71.3    58   55.8   70.7  10.70  .0736    0.000   214    5    100.0   10 
 8/18/19 12:40p   65.4   65.6   64.8    70   55.4  10.0    NE   1.67  16.0    NE   63.3   65.5   63.4   73.2  29.916  0.00  0.00   834    11.96    838     7.2  0.51   8.1   0.000   0.003   71.3    58   55.8   70.7  10.70  .0736    0.000   212    5    100.0   10 
 8/18/19 12:50p   66.1   66.1   65.4    69   55.6  10.0    NE   1.67  18.0   ENE   64.1   66.2   64.2   74.0  29.917  0.00  0.00   840    12.04    842     7.8  0.56   8.0   0.000   0.008   71.3    58   55.8   70.7  10.70  .0736    0.000   212    5    100.0   10 
 8/18/19  1:00p   67.0   67.1   66.1    67   55.7  10.0   ENE   1.67  18.0   ENE   65.0   67.2   65.2   75.0  29.917  0.00  0.00   845    12.11    849     7.6  0.54   7.8   0.000   0.014   71.3    58   55.8   70.7  10.70  .0736    0.020   214    5    100.0   10 
 8/18/19  1:10p   66.7   67.0   66.6    68   55.8   9.0   ENE   1.50  15.0     N   65.4   66.9   65.6   75.7  29.916  0.00  0.00   849    12.17    851     7.6  0.54   7.8   0.000   0.012   71.2    58   55.7   70.6  10.70  .0736    0.000   212    5    100.0   10 
 8/18/19  1:20p   66.9   66.9   66.5    68   56.0   9.0    NE   1.50  16.0   NNE   65.6   67.1   65.8   75.9  29.916  0.00  0.00   851    12.20    853     8.0  0.57   8.1   0.000   0.013   71.3    58   55.8   70.7  10.70  .0736    0.000   212    5    100.0   10 
 8/18/19  1:30p   66.6   66.9   66.5    67   55.3  11.0    NE   1.83  17.0    NE   64.0   66.7   64.1   73.5  29.914  0.00  0.00   851    12.20    853     8.1  0.58   8.1   0.000   0.011   71.3    58   55.8   70.7  10.70  .0736    0.000   212    5    100.0   10 
 8/18/19  1:40p   67.5   67.6   66.7    66   55.7  10.0    NE   1.67  18.0   ENE   65.5   67.7   65.7   75.4  29.913  0.00  0.00   850    12.18    851     7.9  0.56   8.0   0.000   0.017   71.3    58   55.8   70.7  10.70  .0736    0.000   211    5    100.0   10 
 8/18/19  1:50p   68.1   68.1   67.5    65   55.9   9.0    NE   1.50  18.0    NE   66.7   68.3   66.9   76.9  29.914  0.00  0.00   846    12.13    849     7.8  0.56   7.8   0.000   0.022   71.4    58   55.9   70.9  10.69  .0736    0.000   210    5    100.0   10 
 8/18/19  2:00p   68.1   68.2   68.0    63   55.0  10.0    NE   1.67  16.0   NNE   66.0   68.1   66.0   75.7  29.914  0.00  0.00   842    12.07    844     7.7  0.55   7.7   0.000   0.022   71.4    58   55.9   70.9  10.69  .0736    0.022   213    5    100.0   10 
 8/18/19  2:10p   67.6   68.0   67.5    65   55.4  10.0    NE   1.67  16.0    NE   65.5   67.7   65.6   75.3  29.915  0.00  0.00   836    11.98    838     7.6  0.54   7.7   0.000   0.018   71.4    58   55.9   70.9  10.69  .0736    0.000   212    5    100.0   10 
 8/18/19  2:20p   67.9   67.9   67.6    65   55.7  10.0    NE   1.67  17.0   NNE   65.8   68.1   66.0   75.6  29.914  0.00  0.00   830    11.90    833     7.4  0.53   7.5   0.000   0.020   71.4    58   55.9   70.9  10.69  .0736    0.000   211    5    100.0   10 
 8/18/19  2:30p   67.8   67.8   67.6    66   56.0   8.0    NE   1.33  14.0    NE   67.1   68.0   67.3   77.7  29.909  0.00  0.00   820    11.75    824     7.1  0.51   7.3   0.000   0.019   71.6    58   56.0   71.2  10.69  .0735    0.000   212    5    100.0   10 
 8/18/19  2:40p   67.7   68.2   67.7    66   55.9   8.0    NE   1.33  15.0   NNE   67.0   67.9   67.2   77.5  29.908  0.00  0.00   812    11.64    817     6.9  0.49   7.0   0.000   0.019   71.7    58   56.1   71.3  10.68  .0735    0.000   212    5    100.0   10 
 8/18/19  2:50p   67.6   67.9   67.4    66   55.8   9.0    NE   1.50  15.0    NE   66.2   67.8   66.4   76.4  29.909  0.00  0.00   800    11.47    807     6.7  0.48   6.9   0.000   0.018   71.8    58   56.2   71.5  10.68  .0735    0.000   212    5    100.0   10 
 8/18/19  3:00p   67.2   67.7   67.1    67   55.9   8.0    NE   1.33  15.0   NNE   66.6   67.4   66.8   77.1  29.911  0.00  0.00   788    11.30    793     6.4  0.46   6.7   0.000   0.015   71.6    58   56.0   71.2  10.69  .0735    0.021   209    5    100.0   10 
 8/18/19  3:10p   67.1   67.4   67.1    66   55.4   8.0    NE   1.33  15.0     N   66.5   67.2   66.6   76.8  29.913  0.00  0.00   773    11.08    780     6.0  0.43   6.1   0.000   0.015   71.7    58   56.1   71.3  10.68  .0735    0.000   209    5    100.0   10 
 8/18/19  3:20p   66.7   67.1   66.7    67   55.4   8.0    NE   1.33  17.0    NE   66.1   66.8   66.2   76.4  29.912  0.00  0.00   759    10.88    765     5.6  0.40   5.8   0.000   0.012   71.7    58   56.1   71.3  10.68  .0735    0.000   214    5    100.0   10 
 8/18/19  3:30p   66.3   66.7   66.2    68   55.4   9.0    NE   1.50  13.0   NNE   65.0   66.4   65.1   75.0  29.911  0.00  0.00   743    10.65    749     5.3  0.38   5.4   0.000   0.009   71.4    58   55.9   70.9  10.69  .0736    0.000   212    5    100.0   10 
 8/18/19  3:40p   67.6   67.6   66.3    67   56.2   7.0    NE   1.17  14.0   ENE   67.6   67.9   67.9   78.6  29.911  0.00  0.00   725    10.39    735     5.0  0.36   5.4   0.000   0.018   71.3    58   55.8   70.7  10.70  .0736    0.000   211    5    100.0   10 
 8/18/19  3:50p   67.6   67.7   67.6    66   55.8   7.0    NE   1.17  12.0    NE   67.6   67.8   67.8   78.4  29.912  0.00  0.00   707    10.13    715     4.3  0.31   4.5   0.000   0.018   71.4    58   55.9   70.9  10.69  .0736    0.000   214    5    100.0   10 
 8/18/19  4:00p   67.7   67.8   67.5    66   55.9   7.0    NE   1.17  13.0   NNE   67.7   67.9   67.9   78.5  29.911  0.00  0.00   686     9.83    694     3.9  0.28   4.3   0.000   0.019   71.4    58   55.9   70.9  10.69  .0736    0.019   212    5    100.0   10 
 8/18/19  4:10p   68.1   68.2   67.8    65   55.9   7.0    NE   1.17  12.0    NE   68.1   68.3   68.3   78.9  29.911  0.00  0.00   666     9.55    675     3.5  0.25   3.7   0.000   0.022   71.4    58   55.9   70.9  10.69  .0736    0.000   210    5    100.0   10 
 8/18/19  4:20p   68.1   68.2   68.1    65   55.9   8.0    NE   1.33  14.0    NE   67.4   68.3   67.6   77.7  29.914  0.00  0.00   643     9.22    654     2.8  0.20   3.1   0.000   0.022   71.4    58   55.9   70.9  10.69  .0736    0.000   212    5    100.0   10 
 8/18/19  4:30p   68.2   68.2   67.9    66   56.4   7.0    NE   1.17  12.0    NE   68.2   68.4   68.4   79.0  29.915  0.00  0.00   619     8.87    629     2.0  0.14   2.4   0.000   0.022   71.6    58   56.0   71.2  10.69  .0736    0.000   211    5    100.0   10 
 8/18/19  4:40p   67.7   68.3   67.7    66   55.9   7.0    NE   1.17  12.0   ENE   67.7   67.9   67.9   78.3  29.916  0.00  0.00   596     8.54    610     1.5  0.11   1.7   0.000   0.019   71.6    58   56.0   71.2  10.69  .0736    0.000   213    5    100.0   10 
 8/18/19  4:50p   67.7   67.7   67.4    67   56.3   6.0    NE   1.00  14.0   NNE   67.7   68.0   68.0   78.6  29.918  0.00  0.00   570     8.17    582     1.4  0.10   1.6   0.000   0.019   71.7    58   56.1   71.3  10.68  .0735    0.000   213    5    100.0   10 
 8/18/19  5:00p   67.7   67.9   67.6    66   55.9   7.0    NE   1.17  14.0    NE   67.7   67.9   67.9   78.2  29.920  0.00  0.00   545     7.81    555     0.5  0.04   1.0   0.000   0.019   71.8    58   56.2   71.5  10.68  .0735    0.016   212    5    100.0   10 
 8/18/19  5:10p   67.9   68.0   67.6    66   56.1   8.0    NE   1.33  13.0    NE   67.2   68.2   67.5   77.3  29.919  0.00  0.00   518     7.43    529     0.0  0.00   0.0   0.000   0.020   71.9    58   56.3   71.6  10.67  .0735    0.000   212    5    100.0   10 
 8/18/19  5:20p   67.8   67.9   67.7    67   56.4   8.0    NE   1.33  13.0     E   67.1   68.1   67.4   77.1  29.918  0.00  0.00   491     7.04    501     0.0  0.00   0.0   0.000   0.019   71.9    58   56.3   71.6  10.67  .0735    0.000   211    5    100.0   10 
 8/18/19  5:30p   67.4   67.8   67.3    69   56.9   8.0    NE   1.33  15.0   NNE   66.8   67.8   67.2   76.7  29.916  0.00  0.00   464     6.65    476     0.0  0.00   0.0   0.000   0.017   72.0    59   56.9   71.8  10.87  .0735    0.000   211    5    100.0   10 
 8/18/19  5:40p   67.7   67.7   67.4    69   57.2   8.0    NE   1.33  13.0    NE   67.0   68.2   67.5   76.8  29.914  0.00  0.00   435     6.24    448     0.0  0.00   0.0   0.000   0.019   72.0    59   56.9   71.8  10.87  .0735    0.000   212    5    100.0   10 
 8/18/19  5:50p   67.6   67.8   67.6    68   56.7   8.0    NE   1.33  12.0    NE   66.9   68.0   67.3   76.3  29.910  0.00  0.00   404     5.79    420     0.0  0.00   0.0   0.000   0.018   72.0    59   56.9   71.8  10.87  .0735    0.000   213    5    100.0   10 
 8/18/19  6:00p   67.4   67.8   67.4    69   56.9   8.0    NE   1.33  13.0    NE   66.8   67.8   67.2   75.9  29.911  0.00  0.00   375     5.38    388     0.0  0.00   0.0   0.000   0.017   72.0    59   56.9   71.8  10.87  .0735    0.012   212    5    100.0   10 
 8/18/19  6:10p   67.5   67.5   67.4    69   57.0   7.0    NE   1.17  14.0   NNE   67.5   67.9   67.9   76.6  29.910  0.00  0.00   346     4.96    360     0.0  0.00   0.0   0.000   0.017   72.0    59   56.9   71.8  10.87  .0735    0.000   211    5    100.0   10 
 8/18/19  6:20p   67.0   67.5   67.0    70   56.9   8.0    NE   1.33  14.0   ENE   66.4   67.4   66.8   74.7  29.913  0.00  0.00   314     4.50    329     0.0  0.00   0.0   0.000   0.014   72.1    59   57.0   72.0  10.87  .0734    0.000   214    5    100.0   10 
 8/18/19  6:30p   67.1   67.2   67.0    69   56.6   7.0   ENE   1.17  12.0    NE   67.1   67.4   67.4   75.1  29.910  0.00  0.00   285     4.09    297     0.0  0.00   0.0   0.000   0.015   72.1    59   57.0   72.0  10.87  .0734    0.000   212    5    100.0   10 
 8/18/19  6:40p   66.4   67.1   66.3    70   56.3   8.0    NE   1.33  14.0   NNE   65.8   66.7   66.1   72.8  29.909  0.00  0.00   255     3.66    269     0.0  0.00   0.0   0.000   0.010   72.1    59   57.0   72.0  10.87  .0734    0.000   212    5    100.0   10 
 8/18/19  6:50p   66.3   66.4   66.3    70   56.2   7.0   ENE   1.17  13.0   ENE   66.3   66.6   66.6   72.8  29.909  0.00  0.00   222     3.18    237     0.0  0.00   0.0   0.000   0.009   72.1    59   57.0   72.0  10.87  .0734    0.000   213    5    100.0   10 
 8/18/19  7:00p   66.1   66.3   66.1    70   56.0   8.0   ENE   1.33  13.0    NE   65.5   66.3   65.7   70.7  29.909  0.00  0.00   187     2.68    197     0.0  0.00   0.0   0.000   0.008   72.0    59   56.9   71.8  10.87  .0735    0.008   213    5    100.0   10 
 8/18/19  7:10p   65.9   66.1   65.8    70   55.8   8.0   ENE   1.33  15.0   ENE   65.3   66.1   65.5   69.5  29.910  0.00  0.00   154     2.21    171     0.0  0.00   0.0   0.000   0.006   71.9    59   56.8   71.7  10.87  .0735    0.000   212    5    100.0   10 
 8/18/19  7:20p   65.7   65.8   65.7    71   56.0   8.0   ENE   1.33  13.0    NE   65.1   65.9   65.3   68.1  29.913  0.00  0.00   118     1.69    135     0.0  0.00   0.0   0.000   0.005   71.8    59   56.7   71.5  10.88  .0735    0.000   211    5    100.0   10 
 8/18/19  7:30p   65.5   65.7   65.5    71   55.8   7.0   ENE   1.17  13.0   ENE   65.5   65.7   65.7   64.8  29.910  0.00  0.00    86     1.23     98     0.0  0.00   0.0   0.000   0.003   71.8    59   56.7   71.5  10.88  .0735    0.000   213    5    100.0   10 
 8/18/19  7:40p   65.2   65.5   65.2    72   55.9   7.0   ENE   1.17  12.0   ENE   65.2   65.4   65.4   63.9  29.907  0.00  0.00    59     0.85     70     0.0  0.00   0.0   0.000   0.001   71.9    59   56.8   71.7  10.87  .0735    0.000   213    5    100.0   10 
 8/18/19  7:50p   64.9   65.2   64.9    72   55.7   6.0   ENE   1.00  11.0    NE   64.9   65.0   65.0   63.0  29.908  0.00  0.00    36     0.52     46     0.0  0.00   0.0   0.001   0.000   71.9    59   56.8   71.7  10.87  .0735    0.000   214    5    100.0   10 
 8/18/19  8:00p   64.4   64.9   64.4    73   55.6   5.0   ENE   0.83  10.0   ENE   64.4   64.5   64.5   62.2  29.912  0.00  0.00    20     0.29     26     0.0  0.00   0.0   0.004   0.000   71.9    59   56.8   71.7  10.87  .0735    0.004   211    5    100.0   10 
 8/18/19  8:10p   63.7   64.4   63.7    73   54.9   6.0   ENE   1.00  11.0     E   63.7   63.6   63.6   61.1  29.915  0.00  0.00    11     0.16     14     0.0  0.00   0.0   0.009   0.000   71.9    59   56.8   71.7  10.87  .0735    0.000   210    5    100.0   10 
 8/18/19  8:20p   63.2   63.7   63.2    74   54.8   5.0   ENE   0.83  11.0    NE   63.2   63.1   63.1   60.4  29.917  0.00  0.00     3     0.04      7     0.0  0.00   0.0   0.012   0.000   71.9    59   56.8   71.7  10.87  .0735    0.000   213    5    100.0   10 
 8/18/19  8:30p   62.8   63.2   62.8    75   54.8   5.0   ENE   0.83  11.0     E   62.8   62.7   62.7   59.9  29.920  0.00  0.00     0     0.00      0     0.0  0.00   0.0   0.015   0.000   71.9    59   56.8   71.7  10.87  .0735    0.000   212    5    100.0   10 
 8/18/19  8:40p   62.5   62.8   62.5    76   54.8   4.0   ENE   0.67  10.0   ENE   62.5   62.4   62.4   59.6  29.920  0.00  0.00     0     0.00      0     0.0  0.00   0.0   0.017   0.000   71.9    59   56.8   71.7  10.87  .0735    0.000   211    5    100.0   10 
 8/18/19  8:50p   62.3   62.5   62.3    76   54.6   3.0   ENE   0.50   7.0   ENE   62.3   62.2   62.2   59.4  29.922  0.00  0.00     0     0.00      0     0.0  0.00   0.0   0.019   0.000   72.0    59   56.9   71.8  10.87  .0735    0.000   213    5    100.0   10 
 8/18/19  9:00p   62.2   62.3   62.2    77   54.9   4.0   ENE   0.67  10.0   ENE   62.2   62.2   62.2   59.4  29.925  0.00  0.00     0     0.00      0     0.0  0.00   0.0   0.019   0.000   72.1    59   57.0   72.0  10.87  .0735    0.001   211    5    100.0   10 
 8/18/19  9:10p   62.3   62.3   62.2    78   55.4   4.0   ENE   0.67   9.0   ENE   62.3   62.4   62.4   59.7  29.930  0.00  0.00     0     0.00      0     0.0  0.00   0.0   0.019   0.000   72.2    59   57.1   72.1  10.86  .0735    0.000   213    5    100.0   10 
 8/18/19  9:20p   62.5   62.5   62.3    79   55.9   4.0   ENE   0.67   8.0     E   62.5   62.7   62.7   60.0  29.931  0.00  0.00     0     0.00      0     0.0  0.00   0.0   0.017   0.000   72.2    59   57.1   72.1  10.86  .0735    0.000   212    5    100.0   10 
 8/18/19  9:30p   62.6   62.6   62.5    79   56.0   4.0   ENE   0.67   8.0   ENE   62.6   62.8   62.8   60.1  29.935  0.00  0.00     0     0.00      0     0.0  0.00   0.0   0.017   0.000   72.3    59   57.2   72.3  10.86  .0735    0.000   211    5    100.0   10 
 8/18/19  9:40p   62.7   62.7   62.6    79   56.1   3.0   ENE   0.50  11.0   ENE   62.7   62.9   62.9   60.2  29.939  0.00  0.00     0     0.00      0     0.0  0.00   0.0   0.016   0.000   72.4    59   57.3   72.4  10.85  .0735    0.000   211    5    100.0   10 
 8/18/19  9:50p   62.7   62.7   62.7    80   56.4   3.0   ENE   0.50   7.0   ENE   62.7   63.0   63.0   60.3  29.937  0.00  0.00     0     0.00      0     0.0  0.00   0.0   0.016   0.000   72.4    59   57.3   72.4  10.85  .0734    0.000   212    5    100.0   10 
 8/18/19 10:00p   62.7   62.7   62.7    79   56.1   3.0   ENE   0.50   7.0   ENE   62.7   62.9   62.9   60.2  29.938  0.00  0.00     0     0.00      0     0.0  0.00   0.0   0.016   0.000   72.5    59   57.4   72.6  10.85  .0734    0.001   213    5    100.0   10 
 8/18/19 10:10p   62.7   62.7   62.7    80   56.4   3.0   ENE   0.50   8.0     E   62.7   63.0   63.0   60.3  29.939  0.00  0.00     0     0.00      0     0.0  0.00   0.0   0.016   0.000   72.5    59   57.4   72.6  10.85  .0734    0.000   212    5    100.0   10 
 8/18/19 10:20p   62.7   62.8   62.7    80   56.4   3.0   ENE   0.50   8.0     E   62.7   63.0   63.0   60.3  29.943  0.00  0.00     0     0.00      0     0.0  0.00   0.0   0.016   0.000   72.6    59   57.4   72.7  10.85  .0734    0.000   213    5    100.0   10 
 8/18/19 10:30p   62.5   62.7   62.5    80   56.2   2.0   ENE   0.33   9.0     E   62.5   62.8   62.8   60.1  29.939  0.00  0.00     0     0.00      0     0.0  0.00   0.0   0.017   0.000   72.6    59   57.4   72.7  10.85  .0734    0.000   208    5    100.0   10 
 8/18/19 10:40p   62.4   62.6   62.4    79   55.8   3.0     E   0.50   8.0   ENE   62.4   62.6   62.6   59.9  29.935  0.00  0.00     0     0.00      0     0.0  0.00   0.0   0.018   0.000   72.7    59   57.5   72.9  10.84  .0734    0.000   210    5    100.0   10 
 8/18/19 10:50p   62.2   62.4   62.2    80   56.0   3.0   ENE   0.50  10.0   ENE   62.2   62.4   62.4   59.7  29.938  0.00  0.00     0     0.00      0     0.0  0.00   0.0   0.019   0.000   72.7    59   57.5   72.9  10.84  .0734    0.000   212    5    100.0   10 
 8/18/19 11:00p   62.2   62.2   62.2    80   56.0   2.0   ENE   0.33   7.0     E   62.2   62.4   62.4   59.7  29.941  0.00  0.00     0     0.00      0     0.0  0.00   0.0   0.019   0.000   72.7    59   57.5   72.9  10.84  .0734    0.001   213    5    100.0   10 
 8/18/19 11:10p   62.3   62.3   62.2    80   56.0   2.0   ENE   0.33   8.0     E   62.3   62.5   62.5   59.8  29.941  0.00  0.00     0     0.00      0     0.0  0.00   0.0   0.019   0.000   72.7    59   57.5   72.9  10.84  .0734    0.000   212    5    100.0   10 
 8/18/19 11:20p   62.3   62.3   62.2    80   56.0   1.0     E   0.17   5.0   ENE   62.3   62.5   62.5   59.8  29.945  0.00  0.00     0     0.00      0     0.0  0.00   0.0   0.019   0.000   72.8    59   57.6   73.0  10.84  .0734    0.000   212    5    100.0   10 
 8/18/19 11:30p   62.3   62.3   62.3    80   56.0   2.0   ENE   0.33   4.0    NE   62.3   62.5   62.5   59.8  29.946  0.00  0.00     0     0.00      0     0.0  0.00   0.0   0.019   0.000   72.8    59   57.6   73.0  10.84  .0734    0.000   210    5    100.0   10 
 8/18/19 11:40p   62.3   62.3   62.3    80   56.0   2.0   ENE   0.33   5.0   ENE   62.3   62.5   62.5   59.8  29.946  0.00  0.00     0     0.00      0     0.0  0.00   0.0   0.019   0.000   72.8    59   57.6   73.0  10.84  .0734    0.000   210    5    100.0   10 
 8/18/19 11:50p   62.1   62.3   62.1    80   55.9   1.0   ENE   0.17   3.0   ENE   62.1   62.3   62.3   59.6  29.950  0.00  0.00     0     0.00      0     0.0  0.00   0.0   0.020   0.000   72.9    59   57.7   73.2  10.83  .0734    0.000   209    5    100.0   10 
 8/19/19 12:00a   61.7   62.1   61.7    79   55.1   1.0    NE   0.17   2.0   ENE   61.7   61.8   61.8   59.1  29.951  0.00  0.00     0     0.00      0     0.0  0.00   0.0   0.023   0.000   72.9    59   57.7   73.2  10.83  .0734    0.001   212    5    100.0   10 
 8/19/19 12:10a   61.2   61.7   61.2    79   54.6   1.0    NE   0.17   4.0    NE   61.2   61.2   61.2   58.4  29.953  0.00  0.00     0     0.00      0     0.0  0.00   0.0   0.026   0.000   72.9    59   57.7   73.2  10.83  .0734    0.000   212    5    100.0   10 
 8/19/19 12:20a   60.9   61.2   60.8    80   54.7   1.0    NE   0.17   2.0    NE   60.9   60.9   60.9   58.1  29.950  0.00  0.00     0     0.00      0     0.0  0.00   0.0   0.028   0.000   72.9    59   57.7   73.2  10.83  .0734    0.000   208    5    100.0   10 
 8/19/19 12:30a   61.2   61.2   60.9    81   55.3   1.0    NE   0.17   2.0    NE   61.2   61.3   61.3   58.6  29.953  0.00  0.00     0     0.00      0     0.0  0.00   0.0   0.026   0.000   73.0    59   57.8   73.3  10.83  .0734    0.000   213    5    100.0   10 
 8/19/19 12:40a   60.5   61.2   60.5    80   54.3   2.0    NE   0.33   3.0    NE   60.5   60.5   60.5   57.7  29.954  0.00  0.00     0     0.00      0     0.0  0.00   0.0   0.031   0.000   73.0    59   57.8   73.3  10.83  .0734    0.000   214    5    100.0   10 
 8/19/19 12:50a   60.5   60.5   60.4    81   54.6   1.0   ENE   0.17   3.0   ENE   60.5   60.5   60.5   57.7  29.950  0.00  0.00     0     0.00      0     0.0  0.00   0.0   0.031   0.000   73.0    59   57.8   73.3  10.83  .0734    0.000   213    5    100.0   10 
 8/19/19  1:00a   61.1   61.1   60.5    82   55.6   1.0    NE   0.17   3.0   NNE   61.1   61.2   61.2   58.5  29.953  0.00  0.00     0     0.00      0     0.0  0.00   0.0   0.027   0.000   73.0    59   57.8   73.3  10.83  .0734    0.001   213    5    100.0   10 
 8/19/19  1:10a   60.6   61.2   60.6    81   54.7   1.0    NE   0.17   3.0    NE   60.6   60.6   60.6   57.8  29.955  0.00  0.00     0     0.00      0     0.0  0.00   0.0   0.031   0.000   73.0    59   57.8   73.3  10.83  .0734    0.000   211    5    100.0   10 
 8/19/19  1:20a   60.5   60.6   60.5    81   54.6   1.0    NE   0.17   2.0    NE   60.5   60.5   60.5   57.7  29.955  0.00  0.00     0     0.00      0     0.0  0.00   0.0   0.031   0.000   73.1    59   57.9   73.4  10.83  .0734    0.000   211    5    100.0   10 
 8/19/19  1:30a   60.5   60.5   60.4    82   55.0   1.0     E   0.17   4.0     E   60.5   60.5   60.5   57.7  29.953  0.00  0.00     0     0.00      0     0.0  0.00   0.0   0.031   0.000   73.0    59   57.8   73.3  10.83  .0734    0.000   210    5    100.0   10 
 8/19/19  1:40a   60.6   60.6   60.5    82   55.1   1.0     E   0.17   2.0     E   60.6   60.6   60.6   57.9  29.957  0.00  0.00     0     0.00      0     0.0  0.00   0.0   0.031   0.000   73.0    59   57.8   73.3  10.83  .0734    0.000   213    5    100.0   10 
 8/19/19  1:50a   58.6   60.6   58.6    81   52.8   2.0   ENE   0.33   5.0     N   58.6   58.4   58.4   55.5  29.961  0.00  0.00     0     0.00      0     0.0  0.00   0.0   0.044   0.000   73.0    59   57.8   73.3  10.83  .0734    0.000   212    5    100.0   10 
 8/19/19  2:00a   58.2   58.6   58.2    82   52.7   2.0    NE   0.33   3.0   ENE   58.2   58.0   58.0   55.1  29.962  0.00  0.00     0     0.00      0     0.0  0.00   0.0   0.047   0.000   73.0    59   57.8   73.3  10.83  .0734    0.001   210    5    100.0   10 
 8/19/19  2:10a   58.4   58.4   58.2    83   53.3   1.0    NE   0.17   3.0    NE   58.4   58.3   58.3   55.5  29.963  0.00  0.00     0     0.00      0     0.0  0.00   0.0   0.046   0.000   73.0    59   57.8   73.3  10.83  .0734    0.000   213    5    100.0   10 
 8/19/19  2:20a   58.2   58.4   58.2    84   53.4   2.0   ENE   0.33   3.0    NE   58.2   58.1   58.1   55.3  29.967  0.00  0.00     0     0.00      0     0.0  0.00   0.0   0.047   0.000   73.1    59   57.9   73.4  10.83  .0734    0.000   208    5    100.0   10 
 8/19/19  2:30a   58.2   58.2   58.2    84   53.4   1.0   ENE   0.17   2.0   ENE   58.2   58.1   58.1   55.3  29.969  0.00  0.00     0     0.00      0     0.0  0.00   0.0   0.047   0.000   73.0    59   57.8   73.3  10.83  .0734    0.000   212    5    100.0   10 
 8/19/19  2:40a   58.5   58.5   58.2    85   54.0   1.0   ENE   0.17   2.0   ENE   58.5   58.5   58.5   55.7  29.972  0.00  0.00     0     0.00      0     0.0  0.00   0.0   0.045   0.000   73.0    59   57.8   73.3  10.83  .0734    0.000   211    5    100.0   10 
 8/19/19  2:50a   58.7   58.7   58.5    85   54.2   0.0   ENE   0.00   1.0   ENE   58.7   58.7   58.7   55.9  29.969  0.00  0.00     0     0.00      0     0.0  0.00   0.0   0.044   0.000   73.0    58   57.3   73.2  10.63  .0734    0.000   213    5    100.0   10 
 8/19/19  3:00a   58.9   58.9   58.7    85   54.4   0.0   ---   0.00   0.0   ---   58.9   58.9   58.9   56.1  29.970  0.00  0.00     0     0.00      0     0.0  0.00   0.0   0.042   0.000   73.0    58   57.3   73.2  10.63  .0734    0.001   213    5    100.0   10 
 8/19/19  3:10a   59.2   59.3   58.9    85   54.7   0.0   ENE   0.00   1.0   ENE   59.2   59.2   59.2   56.4  29.974  0.00  0.00     0     0.00      0     0.0  0.00   0.0   0.040   0.000   72.9    58   57.3   73.1  10.63  .0735    0.000   213    5    100.0   10 
Email: AdamSPAM@StormwatchersRetreat.com (To send me email remove the word 'SPAM' from my email address.)